Weather History for Olive Branch, MS

Change the Weather History Date:

Sunday, December 29, 2013

  Actual Average (KMEM) Record (KMEM)
Temperature  
Mean Temperature 43 °F 41 °F  
Max Temperature 53 °F 50 °F 72 °F (1889)
Min Temperature 33 °F 33 °F 3 °F (1880)
Degree Days  
Heating Degree Days 22 24  
Month to date heating degree days 619  
Since 1 July heating degree days 1118  
Cooling Degree Days 0 0  
Month to date cooling degree days 0  
Year to date cooling degree days 2256  
Moisture  
Dew Point 38 °F    
Average Humidity 90    
Maximum Humidity 100    
Minimum Humidity 67    
Precipitation  
Precipitation 0.06 in 0.16 in 3.05 in (1884)
Month to date precipitation 5.42  
Year to date precipitation 53.36  
Snow  
Snow 0.00 in 0.10 in 1.30 in (1915)
Month to date snowfall 0.2  
Since 1 July snowfall 0.2  
Snow Depth -    
Sea Level Pressure  
Sea Level Pressure 30.05 in    
Wind  
Wind Speed 3 mph (NW)    
Max Wind Speed 18 mph    
Max Gust Speed 21 mph    
Visibility 6 miles    
Events Fog    
T = Trace of Precipitation, MM = Missing Value Source: NWS Daily Summary

Daily Weather History Graph

Daily Weather History Graph

Search for Another Location

Airport:

Trip Planner

Search our weather history database for the weather conditions in past years. The results will help you decide how hot, cold, wet, or windy it might be!

Date:

Astronomy

Dec. 29, 2013 Rise Set
Actual Time 7:06 AM CST 4:56 PM CST
Civil Twilight 6:38 AM CST 5:24 PM CST
Nautical Twilight 6:06 AM CST 5:56 PM CST
Astronomical Twilight 5:35 AM CST 6:26 PM CST
Moon 3:53 AM CST (12/29) 2:31 PM CST (12/29)
Length of Visible Light 10h 46m
Length of Day
9h 49m
Waning Crescent, 11% of the Moon is Illuminated
Dec 29
Waning Crescent
Jan 1
New
Jan 7
First Quarter
Jan 15
Full
Jan 23
Last Quarter

Hourly Weather History & Observations

Time (CST) Temp. Windchill Dew Point Humidity Pressure Visibility Wind Dir Wind Speed Gust Speed Precip Events Conditions
12:15 AM 39.2 °F - - N/A% 29.98 in 2.0 mi Calm Calm - 0.01 in   Overcast
12:35 AM 39.2 °F - - N/A% 29.97 in 1.2 mi Calm Calm - 0.01 in   Overcast
12:55 AM 39.2 °F - - N/A% 29.97 in 1.2 mi Calm Calm - 0.03 in   Overcast
1:15 AM 39.2 °F - - N/A% 29.98 in 2.0 mi Calm Calm - 0.01 in   Overcast
1:35 AM 39.2 °F - - N/A% 29.97 in 0.8 mi Calm Calm - 0.02 in   Overcast
1:55 AM 39.2 °F - - N/A% 29.97 in 1.5 mi Calm Calm - 0.03 in   Overcast
2:15 AM 39.2 °F - - N/A% 29.97 in 2.0 mi Calm Calm - 0.00 in   Overcast
2:35 AM 39.2 °F - - N/A% 29.99 in 2.5 mi Calm Calm - 0.00 in   Overcast
2:55 AM 39.2 °F - - N/A% 29.98 in 2.0 mi Calm Calm - 0.00 in   Overcast
3:15 AM 41.0 °F - - N/A% 29.98 in 1.2 mi Calm Calm - 0.00 in   Overcast
3:35 AM 41.0 °F 39.0 °F - N/A% 29.98 in 0.8 mi West 3.5 mph - 0.00 in   Overcast
3:55 AM 41.0 °F 39.0 °F - N/A% 29.98 in 0.2 mi West 3.5 mph - 0.00 in   Overcast
4:15 AM 41.0 °F - - N/A% 29.98 in 0.2 mi Calm Calm - 0.00 in   Overcast
4:35 AM 41.0 °F - - N/A% 29.98 in 0.2 mi Calm Calm - 0.00 in   Overcast
4:55 AM 41.0 °F 38.0 °F - N/A% 29.98 in 2.0 mi WSW 4.6 mph - 0.00 in   Overcast
5:15 AM 39.2 °F 37.0 °F - N/A% 29.99 in 4.0 mi West 3.5 mph - 0.00 in   Mostly Cloudy
5:35 AM 37.4 °F 32.8 °F - N/A% 29.99 in 3.0 mi SW 5.8 mph - 0.00 in   Partly Cloudy
6:50 AM 35.6 °F - 35.6 °F 100% 30.01 in 0.2 mi Calm Calm - N/A Fog Fog
7:50 AM 33.8 °F - 33.8 °F 100% 30.02 in 0.5 mi Calm Calm - N/A Fog Fog
7:55 AM 33.8 °F - 33.8 °F 100% 30.02 in 0.5 mi Calm Calm - N/A Fog Fog
8:30 AM 39.2 °F 35.0 °F 39.2 °F 100% 30.02 in 8.0 mi SSW 5.8 mph - N/A   Scattered Clouds
8:50 AM 39.2 °F 35.0 °F 39.2 °F 100% 30.02 in 10.0 mi SSW 5.8 mph - N/A   Partly Cloudy
9:50 AM 42.8 °F 39.3 °F 42.8 °F 100% 30.04 in 10.0 mi WSW 5.8 mph - N/A   Clear
10:50 AM 48.2 °F - 46.4 °F 93% 30.04 in 10.0 mi WSW 9.2 mph - N/A   Partly Cloudy
11:50 AM 51.8 °F - 44.6 °F 76% 30.01 in 10.0 mi Calm Calm - N/A   Mostly Cloudy
12:50 PM 53.6 °F - 42.8 °F 67% 30.00 in 10.0 mi WNW 5.8 mph - N/A   Overcast
1:50 PM 51.8 °F - 42.8 °F 71% 30.00 in 10.0 mi West 8.1 mph - N/A   Overcast
2:50 PM 51.8 °F - 42.8 °F 71% 30.02 in 10.0 mi West 4.6 mph - N/A   Overcast
3:50 PM 50.0 °F - 42.8 °F 76% 30.04 in 10.0 mi West 5.8 mph - N/A   Overcast
4:55 PM 46.4 °F 41.5 °F 42.8 °F 87% 30.05 in 9.0 mi NNW 10.4 mph - N/A   Overcast
5:50 PM 46.4 °F 41.5 °F 42.8 °F 87% 30.08 in 10.0 mi NNW 10.4 mph - N/A   Overcast
6:50 PM 44.6 °F 36.9 °F 39.2 °F 81% 30.12 in 10.0 mi NNW 18.4 mph - N/A   Overcast
7:55 PM 39.2 °F 31.6 °F 37.4 °F 93% 30.13 in 10.0 mi North 12.7 mph 20.7 mph 0.00 in   Overcast
8:15 PM 39.2 °F 31.6 °F 37.4 °F 93% 30.14 in 10.0 mi North 12.7 mph - 0.00 in   Overcast
8:55 PM 37.4 °F 28.9 °F 35.6 °F 93% 30.15 in 9.0 mi North 13.8 mph 18.4 mph 0.00 in   Overcast
9:15 PM 37.4 °F 29.8 °F 35.6 °F 93% 30.16 in 10.0 mi North 11.5 mph - 0.00 in   Overcast
9:35 PM 37.4 °F 30.3 °F 35.6 °F 93% 30.17 in 10.0 mi North 10.4 mph - 0.00 in   Overcast
9:55 PM 35.6 °F 26.6 °F 33.8 °F 93% 30.17 in 10.0 mi North 13.8 mph - 0.00 in   Overcast
10:15 PM 35.6 °F 28.6 °F 33.8 °F 93% 30.19 in 10.0 mi North 9.2 mph - 0.00 in   Overcast
10:35 PM 35.6 °F 28.0 °F 33.8 °F 93% 30.20 in 10.0 mi North 10.4 mph - 0.00 in   Overcast
10:55 PM 33.8 °F 25.8 °F 33.8 °F 100% 30.19 in 10.0 mi North 10.4 mph 17.3 mph 0.00 in   Overcast
11:15 PM 33.8 °F 26.4 °F 33.8 °F 100% 30.19 in 10.0 mi North 9.2 mph - 0.00 in   Overcast
11:35 PM 33.8 °F 24.8 °F 32.0 °F 93% 30.20 in 8.0 mi North 12.7 mph - 0.00 in   Overcast
11:55 PM 33.8 °F 24.3 °F 32.0 °F 93% 30.20 in 10.0 mi North 13.8 mph - 0.00 in   Overcast